[[{"header":{"parameterUnit":"m.s-1","parameterCategory":1,"la1":30.2991,"la2":30.254,"lo1":-89.0895,"lo2":-89.0444,"dy":0.0017,"dx":0.0017,"nx":28,"ny":28,"refTime":"2024-11-29T03:00:00:Z","depth":0,"parameterNumber":2,"parameterNumberName":"U-component_of_WINDS"},"data":[0,0,0,0,0,0,0,0,0,0,0,0,0,0,0,0,0,0,0,0,0,0,0,0,0,0,0,0,0,0,0,0,0,0,0,0,0,0,0,0,0,0,0,0,0,0,0,0,0,0,0,0,0,0,0,0,0,0,-1.3125,-1.3125,0,-1.3194,-1.3195,-1.3195,-1.3163,-1.3162,-1.316,-1.3158,-1.3232,-1.3235,-1.3239,0,0,0,0,0,0,0,0,0,0,0,0,0,-1.2967,-1.297,-1.3125,-1.3125,-1.3126,-1.3194,-1.3195,-1.3196,-1.3164,-1.3161,-1.3159,-1.3157,-1.3231,-1.3235,-1.3239,0,0,0,0,0,0,0,0,0,0,0,0,0,-1.3036,-1.2971,-1.3124,-1.3118,-1.3119,-1.3193,-1.3195,-1.3196,-1.3164,-1.3161,-1.3159,-1.3156,-1.3229,-1.3235,-1.324,-1.3326,0,0,-1.3256,-1.3259,0,0,0,0,0,0,0,0,-1.3032,-1.3042,-1.3118,-1.3119,-1.3119,-1.3167,-1.3166,-1.3239,-1.3165,-1.3147,-1.3158,-1.3155,-1.3213,-1.3219,-1.3238,-1.3329,-1.3332,-1.3257,-1.326,-1.3263,-1.3264,0,0,0,0,0,0,0,-1.3027,-1.3039,-1.3152,-1.312,-1.312,-1.3113,-1.312,-1.318,-1.3194,-1.3148,-1.3146,-1.3154,-1.3212,-1.3233,-1.324,-1.3333,-1.3257,-1.3262,-1.3265,-1.3267,-1.3499,-1.3501,0,0,0,0,0,0,-1.3023,-1.3035,-1.315,-1.3154,-1.3068,-1.3118,-1.3126,-1.3154,-1.3193,-1.3196,-1.3157,-1.3153,-1.3225,-1.3233,-1.3242,-1.3346,-1.3262,-1.3268,-1.3271,-1.3496,-1.3499,-1.3502,0,0,0,0,0,0,-1.3019,-1.3033,-1.3147,-1.3094,-1.3108,-1.3123,-1.3156,-1.3157,-1.3178,-1.3199,-1.3202,-1.3175,-1.3223,-1.3235,-1.3305,-1.3348,-1.327,-1.3275,-1.3492,-1.3497,-1.3501,-1.3553,0,0,0,0,0,0,-1.3015,-1.3032,-1.3064,-1.3095,-1.3111,-1.3208,-1.3159,-1.316,-1.3187,-1.3182,-1.3217,-1.3221,-1.3222,-1.3297,-1.331,-1.3354,-1.3279,-1.3489,-1.3494,-1.3499,-1.3548,-1.3559,-1.3568,0,0,0,0,0,-1.3009,-1.3077,-1.3066,-1.308,-1.3151,-1.3211,-1.322,-1.322,-1.319,-1.3223,-1.3237,-1.3219,-1.334,-1.3305,-1.3319,-1.3365,-1.3486,-1.3493,-1.3499,-1.3543,-1.3557,-1.3568,0,0,0,0,0,0,-1.3052,-1.3081,-1.3069,-1.3149,-1.3177,-1.3205,-1.3247,-1.3234,-1.3273,-1.3267,-1.3265,-1.3274,-1.3347,-1.3363,-1.3322,-1.345,-1.3409,-1.3419,-1.3437,-1.345,-1.346,-1.3456,-1.3284,0,0,0,0,0,-1.3071,-1.3116,-1.3138,-1.3206,-1.3221,-1.3232,-1.3258,-1.3254,-1.3285,-1.3297,-1.3316,-1.3347,-1.3392,-1.3422,-1.3464,-1.3549,-1.3557,-1.3588,-1.3598,-1.3606,-1.3616,-1.3662,-1.3676,-1.3524,-1.3524,-1.3524,0,0,-1.311,-1.3131,-1.316,-1.3216,-1.3237,-1.3285,-1.3242,-1.3294,-1.333,-1.3305,-1.3373,-1.3388,-1.3422,-1.3501,-1.3536,-1.3516,-1.3659,-1.3615,-1.3621,-1.3626,-1.367,-1.3685,-1.3698,-1.3528,-1.3528,-1.3527,0,0,-1.3206,-1.3226,-1.3285,-1.3307,-1.3341,-1.3347,-1.3361,-1.3391,-1.3399,-1.3467,-1.345,-1.3492,-1.3569,-1.3595,-1.3618,-1.3722,-1.3708,-1.3736,-1.379,-1.3836,-1.3848,-1.3858,-1.3897,-1.391,-1.3744,-1.3745,-1.3745,0,-1.3251,-1.3321,-1.3317,-1.337,-1.3396,-1.3374,-1.3434,-1.3457,-1.3503,-1.3521,-1.3498,-1.3594,-1.3616,-1.37,-1.3725,-1.3744,-1.3761,-1.3733,-1.3846,-1.3857,-1.3867,-1.3903,-1.3918,-1.3748,-1.3747,-1.3747,-1.3747,0,-1.3375,-1.3424,-1.3467,-1.3511,-1.3541,-1.3598,-1.3603,-1.3634,-1.3628,-1.3637,-1.3707,-1.3731,-1.3779,-1.3798,-1.3793,-1.3882,-1.3868,-1.3846,-1.3804,-1.3885,-1.3919,-1.3933,-1.3753,-1.3751,-1.375,-1.375,0,0,-1.3502,-1.3542,-1.3558,-1.3578,-1.3612,-1.3651,-1.3706,-1.3751,-1.3778,-1.381,-1.3858,-1.3923,-1.3902,-1.3928,-1.3926,-1.3965,-1.4048,-1.3938,-1.3938,-1.3958,-1.4148,-1.4166,-1.4182,-1.4037,-1.404,-1.4042,-1.4145,0,-1.3601,-1.3698,-1.3695,-1.3786,-1.3831,-1.3811,-1.3859,-1.3886,-1.3896,-1.3936,-1.3947,-1.3994,-1.3962,-1.3978,-1.4016,-1.4029,-1.4086,-1.4022,-1.4083,-1.4085,-1.4076,-1.42,-1.4219,-1.4316,-1.4159,-1.4161,-1.4162,0,-1.373,-1.3766,-1.386,-1.3888,-1.3907,-1.3951,-1.3992,-1.4031,-1.4061,-1.4065,-1.4093,-1.4085,-1.4142,-1.4097,-1.4177,-1.4133,-1.4158,-1.4168,-1.4172,-1.4179,-1.413,-1.4212,-1.4346,-1.4361,-1.4183,-1.4182,-1.418,0,-1.3815,-1.3886,-1.3952,-1.3969,-1.4003,-1.4034,-1.405,-1.4077,-1.4105,-1.4141,-1.4158,-1.4201,-1.4225,-1.4258,-1.4261,-1.4228,-1.4342,-1.4297,-1.4348,-1.4348,-1.4374,-1.4373,-1.4516,-1.4387,-1.4387,-1.4387,-1.4387,0,-1.3927,-1.3986,-1.399,-1.4031,-1.4097,-1.4093,-1.4159,-1.4172,-1.4196,-1.4239,-1.4224,-1.4265,-1.4266,-1.4308,-1.4311,-1.4377,-1.4387,-1.4393,-1.4394,-1.4396,-1.4395,-1.4413,-1.4407,-1.4391,-1.439,-1.4389,-1.4389,0,-1.4034,-1.4039,-1.4109,-1.4135,-1.4143,-1.419,-1.4212,-1.4251,-1.4259,-1.4314,-1.4327,-1.4339,-1.4388,-1.4393,-1.4451,-1.4453,-1.4532,-1.4525,-1.4522,-1.4522,-1.4572,-1.4568,-1.4733,-1.4755,-1.4611,-1.4612,-1.4613,0,-1.4106,-1.4151,-1.4181,-1.4208,-1.4225,-1.427,-1.4297,-1.4295,-1.4325,-1.4362,-1.4397,-1.4444,-1.4482,-1.4561,-1.4576,-1.4619,-1.4614,-1.4668,-1.462,-1.4621,-1.4616,-1.4614,-1.4619,-1.4679,-1.468,-1.4681,-1.4682,0,-1.4234,-1.4234,-1.4273,-1.4314,-1.4347,-1.4379,-1.4409,-1.4433,-1.4434,-1.4468,-1.4517,-1.4547,-1.4604,-1.4652,-1.4695,-1.4712,-1.4698,-1.4697,-1.4711,-1.4715,-1.4712,-1.4715,-1.4549,-1.4694,-1.4693,-1.4692,-1.4691,-1.4691,-1.4327,-1.4365,-1.4393,-1.4437,-1.4459,-1.4487,-1.4525,-1.4537,-1.4578,-1.4624,-1.462,-1.4675,-1.4704,-1.476,-1.478,-1.4823,-1.4805,-1.4826,-1.4831,-1.4837,-1.4842,-1.4703,-1.4831,-1.4831,-1.483,-1.483,-1.483,0,-1.4455,-1.4471,-1.4512,-1.4554,-1.4589,-1.4571,-1.4603,-1.4634,-1.4682,-1.471,-1.4747,-1.4804,-1.4849,-1.4867,-1.4911,-1.4943,-1.4938,-1.4955,-1.4953,-1.4958,-1.4855,-1.4839,-1.4958,-1.4958,-1.4958,-1.4958,-1.4958,-1.4958,-1.4526,-1.4591,-1.4594,-1.467,-1.4686,-1.4739,-1.4759,-1.4785,-1.4807,-1.487,-1.4908,-1.4918,-1.4942,-1.4988,-1.503,-1.5033,-1.5051,-1.5072,-1.5073,-1.4978,-1.4965,-1.4952,-1.4937,-1.5075,-1.5075,-1.5172,-1.5173,-1.5174]},{"header":{"parameterUnit":"m.s-1","parameterCategory":1,"la1":30.2991,"la2":30.254,"lo1":-89.0895,"lo2":-89.0444,"dy":0.0017,"dx":0.0017,"nx":28,"ny":28,"refTime":"2024-11-29T03:00:00:Z","depth":0,"parameterNumber":3,"parameterNumberName":"V-component_of_WINDS"},"data":[0,0,0,0,0,0,0,0,0,0,0,0,0,0,0,0,0,0,0,0,0,0,0,0,0,0,0,0,0,0,0,0,0,0,0,0,0,0,0,0,0,0,0,0,0,0,0,0,0,0,0,0,0,0,0,0,0,0,-7.895,-7.8951,0,-7.9043,-7.9044,-7.9045,-7.8962,-7.8959,-7.8956,-7.8952,-7.9041,-7.9046,-7.9052,0,0,0,0,0,0,0,0,0,0,0,0,0,-7.8694,-7.87,-7.895,-7.8951,-7.8953,-7.9043,-7.9044,-7.9046,-7.8963,-7.8959,-7.8955,-7.8951,-7.9039,-7.9046,-7.9052,0,0,0,0,0,0,0,0,0,0,0,0,0,-7.8798,-7.8701,-7.895,-7.8922,-7.8921,-7.9043,-7.9044,-7.9046,-7.8964,-7.8959,-7.8954,-7.8949,-7.9037,-7.9045,-7.9053,-7.9206,0,0,-7.9079,-7.9082,0,0,0,0,0,0,0,0,-7.8792,-7.8808,-7.8925,-7.8924,-7.8923,-7.8986,-7.8987,-7.9099,-7.8965,-7.8947,-7.8952,-7.8946,-7.9026,-7.9035,-7.9064,-7.921,-7.9214,-7.9079,-7.9084,-7.9088,-7.909,0,0,0,0,0,0,0,-7.8785,-7.8803,-7.8987,-7.8927,-7.8926,-7.8903,-7.8912,-7.9008,-7.9014,-7.8948,-7.8943,-7.8955,-7.9025,-7.9056,-7.9065,-7.9215,-7.9079,-7.9086,-7.9091,-7.9095,-7.9491,-7.9496,0,0,0,0,0,0,-7.8782,-7.8798,-7.8984,-7.899,-7.8844,-7.8912,-7.8922,-7.8971,-7.9013,-7.9014,-7.8959,-7.8951,-7.9044,-7.9056,-7.9068,-7.925,-7.9088,-7.9096,-7.91,-7.9485,-7.9492,-7.9498,0,0,0,0,0,0,-7.8777,-7.8799,-7.898,-7.8892,-7.8914,-7.8922,-7.8977,-7.8975,-7.9006,-7.9021,-7.9021,-7.8991,-7.9041,-7.9056,-7.9173,-7.9251,-7.9099,-7.9107,-7.9479,-7.9487,-7.9495,-7.9614,0,0,0,0,0,0,-7.877,-7.8798,-7.8857,-7.8894,-7.8919,-7.9085,-7.8982,-7.8981,-7.9022,-7.9012,-7.905,-7.9052,-7.9038,-7.9161,-7.9181,-7.926,-7.9113,-7.9472,-7.9482,-7.9492,-7.9603,-7.9625,-7.9644,0,0,0,0,0,-7.8761,-7.8886,-7.8861,-7.8884,-7.8993,-7.909,-7.9104,-7.9087,-7.9028,-7.9087,-7.9097,-7.905,-7.924,-7.9173,-7.9195,-7.9278,-7.9467,-7.9479,-7.9492,-7.9594,-7.9621,-7.9644,0,0,0,0,0,0,-7.8855,-7.889,-7.8863,-7.9003,-7.9045,-7.9076,-7.915,-7.9117,-7.9174,-7.9162,-7.9137,-7.9146,-7.9269,-7.9285,-7.921,-7.9428,-7.9343,-7.9361,-7.9413,-7.9439,-7.946,-7.9453,-7.912,0,0,0,0,0,-7.8893,-7.8971,-7.8996,-7.9117,-7.914,-7.9142,-7.9183,-7.9167,-7.9208,-7.9224,-7.9242,-7.9282,-7.935,-7.9395,-7.9459,-7.9605,-7.9612,-7.9672,-7.9693,-7.971,-7.9726,-7.9804,-7.9832,-7.9539,-7.9539,-7.9539,0,0,-7.897,-7.8999,-7.9049,-7.9137,-7.9167,-7.9247,-7.9157,-7.9244,-7.9302,-7.9236,-7.9349,-7.9363,-7.9405,-7.9538,-7.9596,-7.9554,-7.9808,-7.9726,-7.9739,-7.9746,-7.982,-7.9848,-7.9872,-7.9548,-7.9546,-7.9545,0,0,-7.9152,-7.9182,-7.9287,-7.932,-7.9368,-7.9368,-7.9394,-7.9431,-7.9438,-7.9551,-7.9503,-7.9571,-7.9689,-7.9722,-7.9754,-7.995,-7.9909,-7.9971,-8.0079,-8.0156,-8.0179,-8.0199,-8.0269,-8.0295,-7.9986,-7.9986,-7.9986,0,-7.9242,-7.9362,-7.9345,-7.9437,-7.9477,-7.9423,-7.9529,-7.956,-7.9626,-7.9654,-7.9606,-7.9754,-7.9779,-7.9918,-7.9966,-7.9994,-8.0021,-7.9966,-8.0177,-8.0198,-8.0216,-8.0283,-8.0309,-7.9993,-7.9993,-7.9992,-7.9991,0,-7.947,-7.9554,-7.9633,-7.9701,-7.9749,-7.9847,-7.9843,-7.9894,-7.9874,-7.9879,-7.9994,-8.0022,-8.0091,-8.0122,-8.0102,-8.0259,-8.0232,-8.0181,-8.0096,-8.0252,-8.0314,-8.0339,-8.0004,-8.0001,-7.9999,-7.9997,0,0,-7.9714,-7.9772,-7.9801,-7.9832,-7.9881,-7.9945,-8.004,-8.011,-8.0154,-8.02,-8.0279,-8.0381,-8.0335,-8.0372,-8.0355,-8.0422,-8.0576,-8.0363,-8.0364,-8.0403,-8.0751,-8.0789,-8.0819,-8.055,-8.0554,-8.0558,-8.0747,0,-7.9899,-8.0068,-8.0055,-8.0213,-8.0291,-8.0241,-8.0324,-8.0362,-8.037,-8.0434,-8.0441,-8.0514,-8.0448,-8.047,-8.0535,-8.0544,-8.0646,-8.053,-8.0621,-8.0625,-8.0613,-8.0851,-8.0892,-8.1069,-8.0771,-8.0776,-8.0779,0,-8.0137,-8.0195,-8.0363,-8.0401,-8.0433,-8.0508,-8.0571,-8.0635,-8.0676,-8.0677,-8.0719,-8.0691,-8.0785,-8.0697,-8.0826,-8.0748,-8.0784,-8.0795,-8.0801,-8.0809,-8.0712,-8.0866,-8.1125,-8.1152,-8.0817,-8.0814,-8.0811,0,-8.0299,-8.0419,-8.0535,-8.0562,-8.061,-8.0664,-8.0686,-8.0723,-8.0766,-8.082,-8.0848,-8.0911,-8.0946,-8.0995,-8.0985,-8.0922,-8.1117,-8.1028,-8.1119,-8.1119,-8.1162,-8.116,-8.1431,-8.1185,-8.1185,-8.1184,-8.1184,0,-8.0507,-8.0611,-8.0608,-8.068,-8.0795,-8.0778,-8.0892,-8.0907,-8.094,-8.1012,-8.0972,-8.104,-8.1022,-8.1088,-8.108,-8.1189,-8.1204,-8.1206,-8.1203,-8.1211,-8.121,-8.1234,-8.1222,-8.1191,-8.119,-8.1189,-8.1187,0,-8.0708,-8.071,-8.0833,-8.0869,-8.0881,-8.0964,-8.0993,-8.106,-8.1064,-8.1156,-8.1176,-8.1183,-8.1259,-8.1254,-8.1339,-8.1333,-8.1467,-8.1449,-8.1454,-8.1451,-8.1542,-8.1534,-8.1838,-8.1877,-8.1606,-8.1608,-8.1611,0,-8.0841,-8.092,-8.0966,-8.1013,-8.1039,-8.1114,-8.1159,-8.1145,-8.1193,-8.1247,-8.1307,-8.138,-8.1438,-8.1562,-8.1573,-8.1638,-8.1621,-8.1724,-8.1631,-8.1636,-8.1623,-8.1619,-8.1627,-8.1742,-8.1745,-8.1747,-8.1749,0,-8.1077,-8.1074,-8.1142,-8.121,-8.1265,-8.1317,-8.1364,-8.1404,-8.1395,-8.145,-8.153,-8.1575,-8.1663,-8.1736,-8.1799,-8.1818,-8.1783,-8.1779,-8.1803,-8.1812,-8.1812,-8.1814,-8.1505,-8.1772,-8.177,-8.1768,-8.1767,-8.1766,-8.1248,-8.1317,-8.1361,-8.1437,-8.1471,-8.1517,-8.1582,-8.1596,-8.1662,-8.1735,-8.1722,-8.1811,-8.185,-8.193,-8.1957,-8.2024,-8.1987,-8.2023,-8.2032,-8.2041,-8.2052,-8.1801,-8.2035,-8.2035,-8.2034,-8.2034,-8.2033,0,-8.1483,-8.1509,-8.1579,-8.1648,-8.1708,-8.1672,-8.1722,-8.1774,-8.1854,-8.1895,-8.1953,-8.2044,-8.2115,-8.2132,-8.22,-8.2251,-8.2236,-8.2269,-8.2265,-8.227,-8.2081,-8.2053,-8.228,-8.228,-8.228,-8.228,-8.228,-8.228,-8.1612,-8.1727,-8.173,-8.1861,-8.1885,-8.1974,-8.2007,-8.2048,-8.2081,-8.2185,-8.2245,-8.2256,-8.2287,-8.2357,-8.242,-8.2423,-8.2449,-8.2489,-8.2486,-8.2308,-8.2284,-8.226,-8.2234,-8.2495,-8.2496,-8.267,-8.2671,-8.2673]}]]